PROGRESS-MS 19

Last updated on Tue Oct 25 2022 00:02:06 GMT+0000 (Coordinated Universal Time)

1 51660U 22014A 22296.61411075 .00009673 00000+0 17934-3 0 9994 2 51660 51.6435 60.3357 0005249 7.9656 359.4428 15.49658807365104
UTC large
Height (km)
Speed (km/s)
/
Latitude / Longitude
Inclination (degrees)
Orbital Period (minutes)
Azimuth
Elevation
Range (km)
Doppler Factor

Next 0 passes for location: London (51.5072 / 0.1276)

Sorry there are no passes over London.